This is the latest recevied weather packets stored in our database for station/object SA7AHC. If no packets are shown the sender has not sent any weather packets the latest 10 day(s).
| Time | Temp. | Humidity | Pressure | Rain* | Wind** | Luminosity | Snow |
|---|---|---|---|---|---|---|---|
| 1778142544 | 10.56° C | 47% | 1016.3 hPa | 0 mm | - | 647 W/m² | - |
| 1778141947 | 10.56° C | 45% | 1016.3 hPa | 0 mm | - | 631 W/m² | - |
| 1778141348 | 10.56° C | 44% | 1016.2 hPa | 0 mm | - | 613 W/m² | - |
| 1778140755 | 10.56° C | 46% | 1016.2 hPa | 0 mm | - | 592 W/m² | - |
| 1778140148 | 10.56° C | 50% | 1016.1 hPa | 0 mm | - | 573 W/m² | - |
| 1778139544 | 10° C | 50% | 1016.1 hPa | 0 mm | - | 550 W/m² | - |
| 1778138947 | 10° C | 51% | 1016 hPa | 0 mm | - | 533 W/m² | - |
| 1778138343 | 8.89° C | 53% | 1016 hPa | 0 mm | - | 512 W/m² | - |
| 1778137745 | 8.89° C | 53% | 1016 hPa | 0 mm | - | 489 W/m² | - |
| 1778137149 | 8.33° C | 54% | 1016 hPa | 0 mm | - | 466 W/m² | - |
| 1778136546 | 7.78° C | 54% | 1016 hPa | 0 mm | - | 441 W/m² | - |
| 1778135944 | 7.22° C | 56% | 1015.9 hPa | 0 mm | - | 415 W/m² | - |
| 1778135347 | 6.67° C | 52% | 1015.8 hPa | 0 mm | - | 394 W/m² | - |
| 1778134747 | 6.67° C | 52% | 1015.9 hPa | 0 mm | - | 352 W/m² | - |
| 1778134149 | 6.11° C | 53% | 1015.8 hPa | 0 mm | - | 345 W/m² | - |
| 1778133549 | 6.11° C | 55% | 1015.8 hPa | 0 mm | - | 250 W/m² | - |
| 1778132947 | 5.56° C | 61% | 1015.8 hPa | 0 mm | - | 37 W/m² | - |
| 1778132345 | 5° C | 67% | 1015.7 hPa | 0 mm | - | 35 W/m² | - |
| 1778131747 | 4.44° C | 74% | 1015.5 hPa | 0 mm | - | 35 W/m² | - |
| 1778131144 | 3.33° C | 79% | 1015.5 hPa | 0 mm | - | 35 W/m² | - |
| 1778129944 | 1.67° C | 86% | 1015.2 hPa | 0 mm | - | 40 W/m² | - |
| 1778129346 | 1.11° C | 86% | 1014.9 hPa | 0 mm | - | 44 W/m² | - |
| 1778128747 | 1.11° C | 87% | 1014.9 hPa | 0 mm | - | 40 W/m² | - |
| 1778128146 | 1.11° C | 87% | 1014.8 hPa | 0 mm | - | 33 W/m² | - |
| 1778127547 | 0.56° C | 87% | 1014.8 hPa | 0 mm | - | 32 W/m² | - |
* Rain latest hour (hover to see other rain measurements)
** Current wind speed in m/s (hover to see current wind gust speed)